Location: Rowland
(34.5359°N, 79.2929°W)
Time: 15:31:19
(UTC+00:00)

Transit 4A - Pass Details

Date: 09 October 2022
Orbit: 871 x 972 km, 66.8° (Epoch: 29 November)

Event Time Altitude Azimuth Distance (km) Brightness Sun altitude
Rises 11:39:15 0° 327° (NNW) 3,471 10.5 3.5°
Reaches altitude 10° 11:41:48 10° 322° (NW) 2,524 9.8 4.0°
Maximum altitude 11:47:22 48° 249° (WSW) 1,120 8.1 5.1°
Drops below altitude 10° 11:52:55 10° 176° (S) 2,518 10.4 6.3°
Sets 11:55:28 0° 171° (S) 3,460 11.2 6.8°
